COSMOS 2251 DEB, 35835

Orbit data source: Space-Track

COSMOS 2251 DEB, 35835 is space debris in LEO originally from a launch on Wed, 16 Jun 1993 UTC launched from the Plesetsk Missile And Space Complex (PKMTR). The debris from Iridium 33, an American commercial communications satellite, has been tracked extensively since its accidental collision with the defunct Russian satellite Cosmos 2251 in 2009. This event, occurring at high speed in low Earth orbit (LEO), generated thousands of pieces of space debris, significantly increasing the risk of further collisions. The Iridium 33 debris cloud has impacted space traffic management and orbital debris mitigation strategies, making it a subject of ongoing study in space situational awareness.

Loading next visibility...
Identifier
35835, 1993-036ATH
Orbit
LEO
Country
Flag of CISCIS
Related business
Manufacturer
Unknown
Mission
Spacecraft
Bus & Motor
Unknown
Mass
Unknown
Launch date (UTC)
1993-06-16 (33 years ago)
Launch vehicle
Unknown
Launch site
Plesetsk Missile And Space Complex (PKMTR)
Object type
Payload
Rocket body
Debris
Shape & HBR
Unknown shape, 0.1 m
Radar Cross Section
Small (<0.1 m²)

Expand to show TLE details & history
Last TLE update: 17 hours ago

TLE from 17 hours ago
0 COSMOS 2251 DEB
1 35835U 93036ATH 26168.10769384  .00000766  00000-0  51031-3 0  9998
2 35835  74.0620 314.8837 0295224  53.8187 308.9858 13.83500646642767
Epoch: 2026-06-17T02:35Z
TLE epoch observation values (Epoch: 2026-06-17T02:35:04.747Z)
Latitude
-0.00001°
Longitude
10.7438°
Altitude
821.856 km
Speed
7.509 km/s
True Right ascension
20h 59m 32s
True Declination
0° 00' 00"
Sunlit
Object was in full shadow at epoch
Visualization orbit readout
Latitude
Unknown
Longitude
Unknown
Altitude
Unknown
Speed
Unknown
Apparent Right ascension
Unknown
Apparent Declination
Unknown
Sunlit
N/A
Visualization observer readout
Local Sidereal Time
05:50:30
Azimuth
Unknown
Elevation
Unknown
Doppler factor
Unknown
Orbital elements
Apogee altitude
1,165.494 km
Perigee altitude
732.854 km
Semi-major axis
7,327.311 km
Eccentricity
0.02952
Inclination
74.062°
RAAN
314.8837°
Arg. of periapsis
53.8187°
True anomaly
306.29473°
Mean anomaly
308.9858°
Eccentric anomaly
307.64647°
Mean motion
3.4604 °/min
Orbital period
104.03 mins
BSTAR
0.00051031

Documentation

Showing up to 5 results
|